Fort Simpson, Northwest Territories

7:20 AM MDT on May 24, 2017 (GMT -0600)
Fort Simpson

Weather History for CYFS - September, 2013

Change the Weather History Date:

Friday, September 13, 2013

  Actual Average Record
Temperature  
Mean Temperature 52 °F -  
Max Temperature 62 °F 47 °F 69 °F (1999)
Min Temperature 41 °F 29 °F 30 °F (2002)
Degree Days  
Heating Degree Days 14    
Growing Degree Days 2 (Base 50)    
Moisture  
Dew Point 44 °F    
Average Humidity 66    
Maximum Humidity 87    
Minimum Humidity 42    
Precipitation  
Precipitation 0.00 in 0.04 in - ()
Sea Level Pressure  
Sea Level Pressure 30.00 in    
Wind  
Wind Speed 4 mph ()    
Max Wind Speed 12 mph    
Max Gust Speed -    
Visibility 15.0 miles    
Events      
Averages and records for this station are not official NWS values.
T = Trace of Precipitation, MM = Missing Value Source: Averaged Metar Reports

Daily Weather History Graph

Daily Weather History Graph

Search for Another Location

Airport or City:

Trip Planner

Search our weather history database for the weather conditions in past years. The results will help you decide how hot, cold, wet, or windy it might be!

Date:

Astronomy

Sep. 13, 2013 Rise Set
Actual Time 7:26 AM MDT 8:32 PM MDT
Civil Twilight 6:41 AM MDT 9:17 PM MDT
Nautical Twilight 5:45 AM MDT 10:13 PM MDT
Astronomical Twilight 4:38 AM MDT 11:19 PM MDT
Moon 5:45 PM MDT (9/13) No Moon Set
Length of Visible Light 14h 36m
Length of Day
13h 06m
Waxing Gibbous, 62% of the Moon is Illuminated
Sep 13
Waxing Gibbous
Sep 19
Full
Sep 26
Last Quarter
Oct 4
New
Oct 11
First Quarter

Hourly Weather History & Observations

Time (MDT) Temp. Dew Point Humidity Pressure Visibility Wind Dir Wind Speed Gust Speed Precip Events Conditions
12:00 AM 50 °F 45 °F 78% 29.82 in 15 mi Calm Calm - -   Clear
12:00 AM 50.0 °F 44.6 °F 82% 29.82 in 15.0 mi Calm Calm - N/A   Partly Cloudy
1:00 AM 55.4 °F 44.6 °F 67% 29.85 in 15.0 mi North 6.9 mph - N/A   Clear
2:00 AM 55.4 °F 44.6 °F 67% 29.90 in 15.0 mi North 11.5 mph - N/A   Clear
3:00 AM 53.6 °F 44.6 °F 72% 29.90 in 15.0 mi NNW 5.8 mph - N/A   Partly Cloudy
4:00 AM 51.8 °F 44.6 °F 76% 29.91 in 15.0 mi NNW 4.6 mph - N/A   Partly Cloudy
5:00 AM 46.4 °F 42.8 °F 87% 29.94 in 15.0 mi West 2.3 mph - N/A   Partly Cloudy
6:00 AM 46.4 °F 42.8 °F 87% 29.97 in 15.0 mi NW 2.3 mph - N/A   Clear
7:00 AM 46.4 °F 41.0 °F 81% 29.98 in 15.0 mi WNW 2.3 mph - N/A   Partly Cloudy
8:00 AM 44.6 °F 41.0 °F 87% 30.00 in 15.0 mi WSW 2.3 mph - N/A   Partly Cloudy
9:00 AM 50.0 °F 42.8 °F 76% 30.01 in 15.0 mi West 6.9 mph - N/A   Partly Cloudy
10:00 AM 53.6 °F 44.6 °F 72% 30.03 in 15.0 mi West 6.9 mph - N/A   Partly Cloudy
11:00 AM 57.2 °F 42.8 °F 59% 30.04 in 15.0 mi NNW 5.8 mph - N/A   Partly Cloudy
12:00 PM 58 °F 43 °F 46% 30.05 in 15 mi NNW 8.1 mph - -   Scattered Clouds
12:00 PM 59.0 °F 42.8 °F 55% 30.05 in 15.0 mi NNW 8.1 mph - N/A   Partly Cloudy
1:00 PM 62.6 °F 39.2 °F 42% 30.05 in 15.0 mi NNW 10.4 mph - N/A   Partly Cloudy
2:00 PM 60.8 °F 42.8 °F 52% 30.06 in 15.0 mi NNW 8.1 mph - N/A   Partly Cloudy
3:00 PM 62.6 °F 44.6 °F 52% 30.07 in 15.0 mi NW 6.9 mph - N/A   Partly Cloudy
4:00 PM 62.6 °F 44.6 °F 52% 30.06 in 15.0 mi North 6.9 mph - N/A   Partly Cloudy
5:00 PM 62.6 °F 44.6 °F 52% 30.07 in 15.0 mi NNW 4.6 mph - N/A   Partly Cloudy
6:00 PM 62.6 °F 44.6 °F 52% 30.07 in 15.0 mi North 4.6 mph - N/A   Partly Cloudy
7:00 PM 62.6 °F 44.6 °F 52% 30.06 in 15.0 mi NE 2.3 mph - N/A   Partly Cloudy
8:00 PM 59.0 °F 44.6 °F 59% 30.06 in 15.0 mi Calm Calm - N/A   Partly Cloudy
9:00 PM 55.4 °F 44.6 °F 67% 30.06 in 15.0 mi Calm Calm - N/A   Partly Cloudy
10:00 PM 55.4 °F 42.8 °F 63% 30.07 in 15.0 mi Calm Calm - N/A   Partly Cloudy
11:00 PM 51.8 °F 42.8 °F 71% 30.07 in 15.0 mi Calm Calm - N/A   Partly Cloudy